Location: Béaulencourt
(50.0796°N, 2.8795°E)
Time: 15:15:39
(UTC+00:00)

Cosmos 2154 Rocket - Visible Passes

Search period start: 19 April 2026 00:00
Search period end: 29 April 2026 00:00
Orbit: 966 x 995 km, 82.9° (Epoch: 19 April)

Date Brightness Start Highest point End Pass type
(mag) Time Alt. Az. Time Alt. Az. Time Alt. Az.
19 Apr 7.6 03:14:45 10° NE 03:15:49 10° NE 03:16:52 10° ENE visible
19 Apr 6.6 20:19:53 10° WSW 20:24:47 23° WNW 20:29:43 10° N visible
20 Apr 7.2 03:39:29 10° NNE 03:43:34 17° ENE 03:47:37 10° E visible
20 Apr 7.1 20:49:10 10° W 20:52:24 14° NW 20:55:38 10° NNW visible
21 Apr 6.5 04:05:43 10° N 04:11:06 28° ENE 04:16:25 10° ESE visible
21 Apr 5.7 19:26:48 10° SW 19:32:41 39° WNW 19:38:37 10° N visible
22 Apr 6.6 19:55:01 10° WSW 20:00:04 24° WNW 20:05:08 10° N visible
23 Apr 7.1 03:14:58 10° NNE 03:18:49 16° ENE 03:22:39 10° E visible
23 Apr 7.2 20:24:10 10° W 20:27:39 15° NW 20:31:09 10° NNW visible
24 Apr 6.5 03:41:07 10° N 03:46:23 26° ENE 03:51:34 10° ESE visible
25 Apr 6.7 19:30:10 10° WSW 19:35:20 26° WNW 19:40:32 10° N visible
26 Apr 7.1 02:50:28 10° NNE 02:54:05 15° NE 02:57:40 10° E visible
26 Apr 7.2 19:59:10 10° W 20:02:54 16° WNW 20:06:39 10° NNW visible
27 Apr 6.5 03:16:32 10° N 03:21:39 25° ENE 03:26:43 10° ESE visible
28 Apr 5.6 03:43:04 10° N 03:49:01 40° ENE 03:54:53 10° SE visible
